Regional Weather Roundup
Issued by NWS Upton, NY

Current Version | Previous Version | Text Only | Print | Product List | Glossary On
Versions: 1 2 3 4 5 6 7 8 9 10 11 12 13 14 15 16 17 18 19 20 21 22 23 24 25 26 27 28 29 30 31 32 33 34 35 36 37 38 39 40 41 42 43 44 45 46 47 48 49 50
226 ASUS41 KOKX 062104 RWROKX REGIONAL WEATHER ROUNDUP NATIONAL WEATHER SERVICE NEW YORK NY 400 PM EST SAT FEB 06 2016 NOTE: "FAIR" INDICATES FEW OR NO CLOUDS BELOW 12,000 FEET WITH NO SIGNIFICANT WEATHER AND/OR OBSTRUCTIONS TO VISIBILITY. NYZ071-072-176-178-NJZ106-104-062200- NEW YORK CITY METRO AREA CITY SKY/WX TMP DP RH WIND PRES REMARKS CENTRAL PARK SUNNY 40 19 43 W5G17 30.31F LAGUARDIA APRT PTSUNNY 40 19 43 SW12G20 30.30S WCI 33 KENNEDY INTL PTSUNNY 38 21 50 SW9 30.32F WCI 31 NEWARK/LIBERTY PTSUNNY 40 22 48 S13 30.30F WCI 32 BRNX BOT. GARD N/A 39 21 48 S9 30.28F WCI 33 TETERBORO SUNNY 40 19 43 S10 30.28F WCI 33 $$ NYZ177-179-078>081-062200- LONG ISLAND NEW YORK CITY SKY/WX TMP DP RH WIND PRES REMARKS FARMINGDALE CLOUDY 38 24 57 SW10 30.31F WCI 31 ISLIP PTSUNNY 36 24 62 SW10 30.30F WCI 28 SHIRLEY MOSUNNY 36 24 62 SW7 30.32F WCI 30 RIVERHEAD N/A 37 23 56 W3 30.33F WESTHAMPTON CLOUDY 36 25 64 SW7 30.33F WCI 30 EAST HAMPTON PTSUNNY 36 25 64 CALM 30.31F MONTAUK POINT N/A 37 27 67 SW8 30.32F WCI 31 $$ NYZ052-065-067-062200- HUDSON VALLEY CITY SKY/WX TMP DP RH WIND PRES REMARKS WHITE PLAINS MOSUNNY 37 19 48 S10 30.26F WCI 30 NEWBURGH MOSUNNY 43 19 39 SW12 30.23F MONTGOMERY SUNNY 41 19 41 S17 30.21F POUGHKEEPSIE MOSUNNY 42 16 34 S8 30.23F ALBANY CLOUDY 40 17 39 S12 30.18S WCI 33 $$ NJZ001-105-106-008-010-013-015-019>022-104-062200- NEW JERSEY CITY SKY/WX TMP DP RH WIND PRES REMARKS NEWARK/LIBERTY PTSUNNY 40 22 48 S13 30.30F WCI 32 TETERBORO SUNNY 40 19 43 S10 30.28F WCI 33 CALDWELL MOSUNNY 40 17 39 SW6 30.29F MORRISTOWN PTSUNNY 39 18 41 SW12G17 30.29F WCI 32 SOMERVILLE SUNNY 41 16 36 SW5 30.27F SUSSEX MOSUNNY 40 18 41 SW9G18 30.24F WCI 34 ANDOVER N/A 39 18 42 VRB5 30.25F TRENTON SUNNY 40 19 43 SW13 30.29F WCI 32 MILLVILLE MOSUNNY 40 23 50 VRB5 30.32F ATLANTIC CITY MOSUNNY 41 22 46 S9 30.32F WRIGHTSTOWN PTSUNNY 39 24 53 SW8 30.28F WCI 34 TOMS RIVER CLOUDY 39 23 52 SW9 30.32S WCI 33 BELMAR CLOUDY 39 19 45 SW8 30.31S WCI 34 $$ PAZ047>061-062-071-062200- EASTERN PENNSYLVANIA CITY SKY/WX TMP DP RH WIND PRES REMARKS PHILADELPHIA CLOUDY 43 19 38 SW10 30.32F ALLENTOWN MOSUNNY 41 20 43 SW13 30.27F SCRANTON MOSUNNY 42 18 37 SW13G21 30.19S $$ CTZ002-004>006-009-010-012-RIZ004-006-007-MAZ004-011-015-062200- SOUTHERN NEW ENGLAND IN CT CITY SKY/WX TMP DP RH WIND PRES REMARKS BRADLEY INTL PTSUNNY 35 23 61 S13 30.24F WCI 26 HARTFORD MOSUNNY 36 24 62 S10 30.27F WCI 28 DANBURY CLOUDY 37 18 46 S9 30.26F WCI 30 WTRBRY/OXFORD MOSUNNY 36 16 44 S12G17 30.26F WCI 27 BRIDGEPORT MOSUNNY 37 25 61 S14 30.30F WCI 28 MERIDEN MOSUNNY 36 21 54 S10 30.28F WCI 28 NEW HAVEN CLOUDY 37 24 59 S10 30.30F WCI 30 CHESTER FAIR 36 27 69 SW12 30.29S WCI 27 GROTON MOSUNNY 35 25 66 SW15 30.30F WCI 25 WILLIMANTIC CLOUDY 36 24 62 S9 30.28F WCI 29 IN RI CITY SKY/WX TMP DP RH WIND PRES REMARKS PROVIDENCE CLOUDY 34 21 59 SW10 30.30F WCI 26 BLOCK ISLAND MOSUNNY 36 27 69 W13G18 30.31F WCI 27 WESTERLY MOSUNNY 35 23 61 SW10 30.31F WCI 27 IN MA CITY SKY/WX TMP DP RH WIND PRES REMARKS BOSTON MOCLDY 35 23 61 S12G22 30.27F WCI 27 WORCESTER CLOUDY 32 20 61 S13 30.20F WCI 22 WESTFIELD MOSUNNY 37 20 50 S20 30.22S WCI 27 PROVINCETOWN CLEAR 34 24 67 SW15 30.31S WCI 24 NANTUCKET PTCLDY 36 25 64 SW14 30.33S WCI 27 $$ ANZ330-335-338-340-345-350-353-355-062200- COASTAL MARINE OBSERVATIONS STATION/POSITION TIME SKY/WX TEMP WIND PRES VSBY WAVE AIR SEA DIR/SP/G HT/PER (UTC) (F) (DEG/KT/KT) (MB) (MI) (FT/S) NY HARB ENTRANCE 1950 39 44 210/ 12/ 16 1026.4 2/11 4S FIRE IS NOT AVBL 20S FIRE ISLAND 1950 38 45 220/ 12/ 14 1027.3 2/10 GREAT SOUTH BAY NOT AVBL 23SW MTP 2050 38 47 240/ 14/ 17 1026.3 3/ 9 HUDSON CANYON 1950 41 51 1027.7 3/ 9 KINGS POINT 2000 38 40 220/ 12/ 14 1025.9 EXECUTION ROCKS NOT AVBL CENTRAL LI SOUND 2000 37 210/ 12/ 16 N/A 1/ 3 EASTERN LI SOUND 2000 37 42 220/ 14/ 17 N/A ROBBINS REEF 2000 38 190/ 11/ 13 1025.7 $$ >>>>>>>>>>>>>>>>>>>>>>>>>>>> KEY <<<<<<<<<<<<<<<<<<<<<<<<<<< > < > SKY/WX - SKY CONDITION/PRESENT WEATHER < > TMP - TEMPERATURE IN FAHRENHEIT < > DP - DEWPOINT IN FAHRENHEIT < > RH - RELATIVE HUMIDITY IN PERCENT < > WIND - DIRECTION AND SPEED IN MPH < > PRES - MEAN SEA LEVEL PRESSURE IN INCHES OF HG < > WCI - WIND CHILL INDEX < > VSB - VISIBILITY IN MILES < > HX - HEAT INDEX < > TC - TEMPERATURE IN CELSIUS < > VRB - VARIABLE WIND DIRECTION < > < >>>>>>>>>>>>>>>>>>>>>>>>>>>> KEY <<<<<<<<<<<<<<<<<<<<<<<<<<<

USA.gov is the U.S. government's official web portal to all federal, state and local government web resources and services.